| time (UTC) | temp C | wind direction | speed KPH | gust KPH | rain 1hr cm | rain 24hr cm | rain mn cm | humidity % | barometer mb |
| 20260506165329 | 16 | 132 | 4.8 | 6.4 | 0.05 | 0.05 | 0.05 | 90 | 1007.6 |
| 20260506164825 | 16 | 124 | 6.4 | 6.4 | 0.13 | 0.05 | 0.05 | 89 | 1007.8 |
| 20260506164322 | 16 | 127 | 6.4 | 6.4 | 0.05 | 0.03 | 0.03 | 87 | 1007.9 |
| 20260506163819 | 17 | 143 | 4.8 | 6.4 | 0.13 | 0.03 | 0.03 | 85 | 1008.1 |
| 20260506163313 | 17 | 128 | 6.4 | 8.0 | 0.00 | 0.00 | 0.00 | 83 | 1008.2 |
| 20260506162809 | 17 | 127 | 4.8 | 6.4 | 0.00 | 0.00 | 0.00 | 81 | 1008.7 |
| 20260506162308 | 18 | 144 | 3.2 | 4.8 | 0.00 | 0.00 | 0.00 | 78 | 1008.7 |
| 20260506161804 | 18 | 141 | 3.2 | 4.8 | 0.00 | 0.00 | 0.00 | 78 | 1008.7 |
| 20260506161302 | 18 | 127 | 4.8 | 4.8 | 0.00 | 0.00 | 0.00 | 78 | 1008.7 |
| 20260506160759 | 18 | 160 | 3.2 | 3.2 | 0.00 | 0.00 | 0.00 | 75 | 1008.2 |
| 20260506160256 | 18 | 103 | 1.6 | 4.8 | 0.00 | 0.00 | 0.00 | 76 | 1008.5 |
| 20260506155755 | 18 | 135 | 3.2 | 4.8 | 0.00 | 0.00 | 0.00 | 78 | 1008.3 |
| 20260506155251 | 18 | 163 | 3.2 | 4.8 | 0.00 | 0.00 | 0.00 | 76 | 1008.5 |
| 20260506153358 | 19 | 127 | 0.0 | 3.2 | 0.00 | 0.00 | 0.00 | 70 | 1008.6 |
| 20260506152855 | 20 | 133 | 1.6 | 3.2 | 0.00 | 0.00 | 0.00 | 70 | 1008.7 |
| 20260506152352 | 20 | 155 | 3.2 | 3.2 | 0.00 | 0.00 | 0.00 | 69 | 1008.8 |
| 20260506151851 | 20 | 238 | 0.0 | 3.2 | 0.00 | 0.00 | 0.00 | 67 | 1008.7 |
| 20260506151347 | 21 | 156 | 3.2 | 6.4 | 0.00 | 0.00 | 0.00 | 65 | 1009.1 |
| 20260506150844 | 21 | 151 | 1.6 | 6.4 | 0.00 | 0.00 | 0.00 | 66 | 1008.7 |
| 20260506150341 | 21 | 111 | 3.2 | 4.8 | 0.00 | 0.00 | 0.00 | 67 | 1008.7 |
| 20260506145838 | 20 | 269 | 0.0 | 8.0 | 0.00 | 0.00 | 0.00 | 68 | 1008.9 |
| 20260506145334 | 20 | 173 | 3.2 | 6.4 | 0.00 | 0.00 | 0.00 | 67 | 1008.6 |
| 20260506144832 | 20 | 122 | 0.0 | 6.4 | 0.00 | 0.00 | 0.00 | 70 | 1008.6 |
| 20260506144328 | 20 | 101 | 4.8 | 6.4 | 0.00 | 0.00 | 0.00 | 70 | 1008.8 |
| 20260506143827 | 20 | 141 | 3.2 | 6.4 | 0.00 | 0.00 | 0.00 | 69 | 1008.8 |
| 20260506143323 | 20 | 114 | 3.2 | 3.2 | 0.00 | 0.00 | 0.00 | 70 | 1008.7 |
| 20260506142821 | 20 | 102 | 0.0 | 4.8 | 0.00 | 0.00 | 0.00 | 70 | 1008.6 |
| 20260506142319 | 20 | 105 | 3.2 | 3.2 | 0.00 | 0.00 | 0.00 | 69 | 1008.9 |
| 20260506141817 | 20 | 49 | 9.7 | 9.7 | 0.00 | 0.00 | 0.00 | 70 | 1008.7 |
| 20260506141315 | 20 | 126 | 4.8 | 6.4 | 0.00 | 0.00 | 0.00 | 70 | 1008.7 |
| 20260506140813 | 20 | 145 | 6.4 | 6.4 | 0.00 | 0.00 | 0.00 | 69 | 1008.9 |
| 20260506140309 | 20 | 116 | 4.8 | 4.8 | 0.00 | 0.00 | 0.00 | 70 | 1008.8 |
| 20260506135806 | 20 | 121 | 3.2 | 6.4 | 0.00 | 0.00 | 0.00 | 71 | 1008.9 |
| 20260506135305 | 20 | 152 | 1.6 | 3.2 | 0.00 | 0.00 | 0.00 | 70 | 1009.1 |
| 20260506134759 | 20 | 255 | 1.6 | 3.2 | 0.00 | 0.00 | 0.00 | 70 | 1008.7 |
| 20260506134256 | 19 | 155 | 3.2 | 6.4 | 0.00 | 0.00 | 0.00 | 72 | 1008.5 |
| 20260506133753 | 19 | 116 | 3.2 | 4.8 | 0.00 | 0.00 | 0.00 | 73 | 1008.5 |
| 20260506133250 | 19 | 119 | 6.4 | 6.4 | 0.00 | 0.00 | 0.00 | 74 | 1008.9 |
| 20260506132746 | 18 | 226 | 1.6 | 6.4 | 0.00 | 0.00 | 0.00 | 73 | 1008.9 |
| 20260506132244 | 18 | 114 | 1.6 | 6.4 | 0.00 | 0.00 | 0.00 | 75 | 1009.1 |
| 20260506131742 | 18 | 149 | 3.2 | 3.2 | 0.00 | 0.00 | 0.00 | 75 | 1009.0 |
| 20260506131237 | 18 | 124 | 4.8 | 4.8 | 0.00 | 0.00 | 0.00 | 75 | 1008.7 |
| 20260506130734 | 18 | 147 | 3.2 | 3.2 | 0.00 | 0.00 | 0.00 | 76 | 1008.6 |
| 20260506130231 | 18 | 181 | 3.2 | 4.8 | 0.00 | 0.00 | 0.00 | 78 | 1008.8 |
| 20260506125729 | 17 | 124 | 3.2 | 4.8 | 0.00 | 0.00 | 0.00 | 80 | 1008.7 |
| 20260506125227 | 17 | 135 | 3.2 | 4.8 | 0.00 | 0.00 | 0.00 | 81 | 1008.7 |
| 20260506124725 | 17 | 127 | 4.8 | 4.8 | 0.00 | 0.00 | 0.00 | 81 | 1008.7 |
| 20260506124223 | 17 | 133 | 3.2 | 4.8 | 0.00 | 0.00 | 0.00 | 82 | 1008.6 |
| 20260506123720 | 16 | 134 | 3.2 | 4.8 | 0.00 | 0.00 | 0.00 | 82 | 1008.6 |
| 20260506123219 | 16 | 110 | 4.8 | 6.4 | 0.00 | 0.00 | 0.00 | 82 | 1008.5 |
| 20260506122715 | 17 | 129 | 4.8 | 6.4 | 0.00 | 0.00 | 0.00 | 81 | 1008.6 |
| 20260506122212 | 17 | 142 | 3.2 | 4.8 | 0.00 | 0.00 | 0.00 | 81 | 1008.8 |
| 20260506121710 | 17 | 131 | 4.8 | 6.4 | 0.00 | 0.00 | 0.00 | 81 | 1008.9 |
| 20260506121206 | 17 | 113 | 3.2 | 3.2 | 0.00 | 0.00 | 0.00 | 80 | 1009.1 |
| 20260506120704 | 17 | 137 | 4.8 | 4.8 | 0.00 | 0.00 | 0.00 | 81 | 1009.0 |
| 20260506120201 | 16 | 146 | 6.4 | 6.4 | 0.00 | 0.00 | 0.00 | 82 | 1009.2 |
| 20260506115700 | 16 | 150 | 3.2 | 6.4 | 0.00 | 0.00 | 0.00 | 81 | 1009.2 |
| 20260506115157 | 16 | 107 | 3.2 | 6.4 | 0.00 | 0.00 | 0.00 | 82 | 1009.1 |
| 20260506114654 | 16 | 144 | 4.8 | 6.4 | 0.00 | 0.00 | 0.00 | 84 | 1009.1 |
| 20260506114152 | 16 | 161 | 3.2 | 4.8 | 0.00 | 0.00 | 0.00 | 84 | 1009.0 |
| 20260506113651 | 16 | 133 | 3.2 | 3.2 | 0.00 | 0.00 | 0.00 | 85 | 1009.1 |
| 20260506113148 | 15 | 160 | 3.2 | 3.2 | 0.00 | 0.00 | 0.00 | 85 | 1009.0 |
| 20260506112643 | 15 | 171 | 3.2 | 3.2 | 0.00 | 0.00 | 0.00 | 85 | 1009.2 |
| 20260506112142 | 15 | 131 | 3.2 | 6.4 | 0.00 | 0.00 | 0.00 | 86 | 1009.1 |
| 20260506111639 | 15 | 120 | 4.8 | 6.4 | 0.00 | 0.00 | 0.00 | 88 | 1009.1 |
| 20260506111136 | 14 | 123 | 4.8 | 4.8 | 0.00 | 0.00 | 0.00 | 89 | 1009.0 |
| 20260506110633 | 14 | 124 | 3.2 | 6.4 | 0.00 | 0.00 | 0.00 | 90 | 1009.0 |
| 20260506110131 | 13 | 117 | 6.4 | 6.4 | 0.00 | 0.00 | 0.00 | 91 | 1009.2 |
| 20260506105627 | 13 | 124 | 3.2 | 4.8 | 0.00 | 0.00 | 0.00 | 91 | 1009.2 |
| 20260506105124 | 13 | 137 | 3.2 | 6.4 | 0.00 | 0.00 | 0.00 | 92 | 1009.0 |
| 20260506104623 | 13 | 133 | 4.8 | 4.8 | 0.00 | 0.00 | 0.00 | 93 | 1009.1 |
| 20260506104120 | 13 | 143 | 3.2 | 4.8 | 0.00 | 0.00 | 0.00 | 93 | 1009.2 |
| 20260506103617 | 13 | 141 | 3.2 | 4.8 | 0.00 | 0.00 | 0.00 | 94 | 1009.0 |
| 20260506103114 | 12 | 125 | 3.2 | 3.2 | 0.00 | 0.00 | 0.00 | 94 | 1009.2 |
| 20260506102612 | 12 | 161 | 3.2 | 6.4 | 0.00 | 0.00 | 0.00 | 94 | 1009.1 |
| 20260506102109 | 12 | 136 | 3.2 | 4.8 | 0.00 | 0.00 | 0.00 | 94 | 1009.0 |
| 20260506101606 | 12 | 113 | 4.8 | 9.7 | 0.00 | 0.00 | 0.00 | 94 | 1008.8 |
| 20260506101102 | 12 | 123 | 4.8 | 6.4 | 0.00 | 0.00 | 0.00 | 94 | 1008.8 |
| 20260506100601 | 12 | 126 | 6.4 | 6.4 | 0.00 | 0.00 | 0.00 | 94 | 1008.9 |
| 20260506100059 | 12 | 134 | 6.4 | 6.4 | 0.00 | 0.00 | 0.00 | 94 | 1008.9 |
| 20260506095557 | 12 | 132 | 4.8 | 6.4 | 0.00 | 0.00 | 0.00 | 94 | 1008.9 |
| 20260506095053 | 12 | 143 | 4.8 | 4.8 | 0.00 | 0.00 | 0.00 | 94 | 1009.0 |
| 20260506094551 | 12 | 145 | 3.2 | 6.4 | 0.00 | 0.00 | 0.00 | 94 | 1008.9 |
| 20260506094049 | 12 | 154 | 4.8 | 4.8 | 0.00 | 0.00 | 0.00 | 93 | 1009.0 |
| 20260506093547 | 12 | 154 | 3.2 | 4.8 | 0.00 | 0.00 | 0.00 | 93 | 1008.9 |
| 20260506093044 | 12 | 119 | 6.4 | 6.4 | 0.00 | 0.00 | 0.00 | 93 | 1008.9 |
| 20260506092542 | 12 | 132 | 3.2 | 4.8 | 0.00 | 0.00 | 0.00 | 92 | 1009.0 |
| 20260506092038 | 12 | 151 | 3.2 | 4.8 | 0.00 | 0.00 | 0.00 | 92 | 1008.9 |
| 20260506091537 | 12 | 141 | 3.2 | 4.8 | 0.00 | 0.00 | 0.00 | 92 | 1009.0 |
| 20260506091033 | 12 | 141 | 3.2 | 6.4 | 0.00 | 0.00 | 0.00 | 92 | 1008.8 |
| 20260506090531 | 12 | 136 | 3.2 | 4.8 | 0.00 | 0.00 | 0.00 | 91 | 1008.9 |
| 20260506090027 | 12 | 139 | 4.8 | 4.8 | 0.00 | 0.00 | 0.00 | 91 | 1009.1 |
| 20260506085524 | 12 | 149 | 3.2 | 4.8 | 0.00 | 0.00 | 0.00 | 90 | 1009.1 |
| 20260506085021 | 12 | 121 | 4.8 | 6.4 | 0.00 | 0.00 | 0.00 | 90 | 1009.3 |
| 20260506084518 | 12 | 131 | 4.8 | 6.4 | 0.00 | 0.00 | 0.00 | 90 | 1009.2 |
| 20260506084014 | 12 | 125 | 4.8 | 6.4 | 0.00 | 0.00 | 0.00 | 90 | 1009.4 |
| 20260506083511 | 12 | 139 | 6.4 | 6.4 | 0.00 | 0.00 | 0.00 | 90 | 1009.2 |
| 20260506083009 | 12 | 138 | 6.4 | 6.4 | 0.00 | 0.00 | 0.00 | 89 | 1009.4 |
| 20260506082505 | 13 | 125 | 4.8 | 6.4 | 0.00 | 0.00 | 0.00 | 89 | 1009.3 |
| 20260506082001 | 13 | 128 | 6.4 | 6.4 | 0.00 | 0.00 | 0.00 | 89 | 1009.5 |
| 20260506081459 | 13 | 130 | 6.4 | 6.4 | 0.00 | 0.00 | 0.00 | 89 | 1009.4 |
| 20260506080957 | 13 | 147 | 3.2 | 6.4 | 0.00 | 0.00 | 0.00 | 88 | 1009.3 |
| 20260506080454 | 13 | 127 | 6.4 | 6.4 | 0.00 | 0.00 | 0.00 | 88 | 1009.2 |
| 20260506073437 | 13 | 137 | 4.8 | 6.4 | 0.00 | 0.00 | 0.00 | 86 | 1009.0 |
| 20260506072935 | 13 | 115 | 6.4 | 6.4 | 0.00 | 0.00 | 0.00 | 85 | 1009.3 |
| 20260506072432 | 13 | 123 | 6.4 | 8.0 | 0.00 | 0.00 | 0.00 | 85 | 1009.4 |
| 20260506071929 | 13 | 122 | 6.4 | 8.0 | 0.00 | 0.00 | 0.00 | 85 | 1009.3 |
| 20260506071427 | 13 | 119 | 4.8 | 6.4 | 0.00 | 0.00 | 0.00 | 85 | 1009.5 |
| 20260506070924 | 13 | 135 | 4.8 | 6.4 | 0.00 | 0.00 | 0.00 | 85 | 1009.6 |
| 20260506070421 | 13 | 106 | 4.8 | 6.4 | 0.00 | 0.00 | 0.00 | 84 | 1009.4 |
| 20260506062358 | 13 | 128 | 3.2 | 4.8 | 0.00 | 0.00 | 0.00 | 84 | 1009.5 |
| 20260506061854 | 14 | 127 | 3.2 | 4.8 | 0.00 | 0.00 | 0.00 | 83 | 1009.5 |
| 20260506061351 | 14 | 123 | 4.8 | 4.8 | 0.00 | 0.00 | 0.00 | 83 | 1009.4 |
| 20260506060849 | 14 | 146 | 3.2 | 4.8 | 0.00 | 0.00 | 0.00 | 83 | 1009.6 |
| 20260506060347 | 14 | 128 | 4.8 | 4.8 | 0.00 | 0.00 | 0.00 | 82 | 1009.6 |
| 20260506051318 | 15 | 131 | 3.2 | 4.8 | 0.00 | 0.00 | 0.00 | 81 | 1010.0 |
| 20260506050816 | 15 | 127 | 4.8 | 4.8 | 0.00 | 0.00 | 0.00 | 81 | 1009.9 |
| 20260506050313 | 15 | 141 | 4.8 | 4.8 | 0.00 | 0.00 | 0.00 | 81 | 1009.8 |
| 20260506044804 | 15 | 142 | 3.2 | 4.8 | 0.00 | 0.00 | 0.00 | 80 | 1009.9 |
| 20260506044301 | 15 | 136 | 3.2 | 4.8 | 0.00 | 0.00 | 0.00 | 80 | 1010.1 |
| 20260506043758 | 15 | 138 | 3.2 | 4.8 | 0.00 | 0.00 | 0.00 | 79 | 1010.1 |
| 20260506043255 | 15 | 152 | 3.2 | 3.2 | 0.00 | 0.00 | 0.00 | 78 | 1009.9 |
| 20260506042754 | 15 | 151 | 3.2 | 4.8 | 0.00 | 0.00 | 0.00 | 78 | 1010.1 |
| 20260506042253 | 15 | 139 | 3.2 | 3.2 | 0.00 | 0.00 | 0.00 | 76 | 1010.0 |
| 20260506041751 | 15 | 132 | 3.2 | 4.8 | 0.00 | 0.00 | 0.00 | 76 | 1009.8 |
| 20260506041248 | 15 | 154 | 3.2 | 3.2 | 0.00 | 0.00 | 0.00 | 76 | 1009.9 |
| 20260506040745 | 15 | 142 | 3.2 | 3.2 | 0.00 | 0.00 | 0.00 | 76 | 1009.8 |
| 20260506040242 | 15 | 155 | 3.2 | 3.2 | 0.00 | 0.00 | 0.00 | 76 | 1010.0 |
| 20260506035739 | 15 | 143 | 3.2 | 4.8 | 0.00 | 0.00 | 0.00 | 75 | 1009.7 |
| 20260506035235 | 15 | 148 | 3.2 | 4.8 | 0.00 | 0.00 | 0.00 | 75 | 1010.0 |
| 20260506034732 | 15 | 141 | 3.2 | 3.2 | 0.00 | 0.00 | 0.00 | 74 | 1009.8 |
| 20260506034230 | 16 | 162 | 3.2 | 3.2 | 0.00 | 0.00 | 0.00 | 75 | 1009.9 |
| 20260506033727 | 16 | 142 | 3.2 | 3.2 | 0.00 | 0.00 | 0.00 | 74 | 1009.9 |
| 20260506033224 | 16 | 150 | 3.2 | 4.8 | 0.00 | 0.00 | 0.00 | 73 | 1009.8 |
| 20260506032721 | 16 | 149 | 3.2 | 3.2 | 0.00 | 0.00 | 0.00 | 72 | 1009.8 |
| 20260506032217 | 16 | 152 | 3.2 | 3.2 | 0.00 | 0.00 | 0.00 | 72 | 1009.7 |
| 20260506031714 | 16 | 145 | 3.2 | 3.2 | 0.00 | 0.00 | 0.00 | 72 | 1009.6 |
| 20260506031212 | 16 | 167 | 3.2 | 4.8 | 0.00 | 0.00 | 0.00 | 72 | 1009.7 |
| 20260506030710 | 16 | 133 | 3.2 | 3.2 | 0.00 | 0.00 | 0.00 | 72 | 1009.7 |
| 20260506030207 | 16 | 151 | 3.2 | 4.8 | 0.00 | 0.00 | 0.00 | 73 | 1009.7 |
| 20260506025704 | 16 | 144 | 3.2 | 4.8 | 0.00 | 0.00 | 0.00 | 72 | 1009.8 |
| 20260506025200 | 16 | 153 | 3.2 | 3.2 | 0.00 | 0.00 | 0.00 | 72 | 1009.6 |
| 20260506024657 | 16 | 143 | 3.2 | 4.8 | 0.00 | 0.00 | 0.00 | 72 | 1009.6 |
| 20260506024153 | 16 | 186 | 3.2 | 3.2 | 0.00 | 0.00 | 0.00 | 72 | 1009.6 |
| 20260506023650 | 16 | 189 | 3.2 | 3.2 | 0.00 | 0.00 | 0.00 | 72 | 1009.8 |
| 20260506023147 | 16 | 153 | 3.2 | 3.2 | 0.00 | 0.00 | 0.00 | 71 | 1009.8 |
| 20260506022644 | 16 | 141 | 3.2 | 3.2 | 0.00 | 0.00 | 0.00 | 72 | 1009.8 |
| 20260506022142 | 16 | 181 | 1.6 | 3.2 | 0.00 | 0.00 | 0.00 | 71 | 1009.7 |
| 20260506021639 | 16 | 160 | 3.2 | 3.2 | 0.00 | 0.00 | 0.00 | 71 | 1009.8 |
| 20260506021136 | 16 | 176 | 1.6 | 3.2 | 0.00 | 0.00 | 0.00 | 71 | 1009.7 |
| 20260506020633 | 16 | 167 | 3.2 | 4.8 | 0.00 | 0.00 | 0.00 | 71 | 1009.8 |
| 20260506020131 | 16 | 154 | 3.2 | 3.2 | 0.00 | 0.00 | 0.00 | 71 | 1009.6 |
| 20260506015628 | 16 | 209 | 0.0 | 4.8 | 0.00 | 0.00 | 0.00 | 71 | 1009.6 |
| 20260506015125 | 16 | 139 | 3.2 | 4.8 | 0.00 | 0.00 | 0.00 | 71 | 1009.6 |
| 20260506014623 | 16 | 161 | 3.2 | 3.2 | 0.00 | 0.00 | 0.00 | 71 | 1009.5 |
| 20260506014118 | 16 | 187 | 1.6 | 3.2 | 0.00 | 0.00 | 0.00 | 70 | 1009.5 |
| 20260506013617 | 16 | 231 | 3.2 | 3.2 | 0.00 | 0.00 | 0.00 | 70 | 1009.3 |
| 20260506013113 | 16 | 120 | 3.2 | 6.4 | 0.00 | 0.00 | 0.00 | 70 | 1009.2 |
| 20260506012609 | 17 | 125 | 3.2 | 3.2 | 0.00 | 0.00 | 0.00 | 69 | 1009.1 |
| 20260506012106 | 17 | 193 | 3.2 | 6.4 | 0.00 | 0.00 | 0.00 | 68 | 1009.1 |
| 20260506011604 | 17 | 145 | 3.2 | 4.8 | 0.00 | 0.00 | 0.00 | 68 | 1009.0 |
| 20260506011100 | 17 | 146 | 4.8 | 8.0 | 0.00 | 0.00 | 0.00 | 67 | 1008.9 |
| 20260506010554 | 17 | 146 | 3.2 | 6.4 | 0.00 | 0.00 | 0.00 | 66 | 1009.0 |
| 20260506010050 | 17 | 136 | 6.4 | 6.4 | 0.00 | 0.00 | 0.00 | 65 | 1008.9 |
| 20260506005547 | 18 | 140 | 6.4 | 8.0 | 0.00 | 0.00 | 0.00 | 64 | 1008.9 |
| 20260506005043 | 18 | 142 | 4.8 | 8.0 | 0.00 | 0.00 | 0.00 | 63 | 1008.8 |
| 20260506004540 | 18 | 134 | 4.8 | 8.0 | 0.00 | 0.00 | 0.00 | 64 | 1008.9 |
| 20260506004037 | 18 | 118 | 8.0 | 8.0 | 0.00 | 0.00 | 0.00 | 64 | 1008.8 |
| 20260506003533 | 18 | 141 | 4.8 | 4.8 | 0.00 | 0.00 | 0.00 | 64 | 1008.6 |
| 20260506003030 | 18 | 133 | 4.8 | 6.4 | 0.00 | 0.00 | 0.00 | 62 | 1008.7 |
| 20260506002526 | 18 | 136 | 4.8 | 6.4 | 0.00 | 0.00 | 0.00 | 63 | 1008.5 |
| 20260506002021 | 18 | 122 | 3.2 | 4.8 | 0.00 | 0.00 | 0.00 | 61 | 1008.6 |
| 20260506001518 | 18 | 122 | 6.4 | 8.0 | 0.00 | 0.00 | 0.00 | 62 | 1008.4 |
| 20260506001015 | 19 | 172 | 1.6 | 6.4 | 0.00 | 0.00 | 0.00 | 61 | 1008.5 |
| 20260506000513 | 19 | 142 | 3.2 | 4.8 | 0.00 | 0.00 | 0.00 | 60 | 1008.3 |
| 20260506000010 | 19 | 146 | 3.2 | 6.4 | 0.00 | 0.00 | 0.00 | 59 | 1008.5 |
| 20260505235508 | 19 | 135 | 4.8 | 6.4 | 0.00 | 0.00 | 0.00 | 60 | 1008.3 |
| 20260505235004 | 19 | 142 | 3.2 | 4.8 | 0.00 | 0.00 | 0.00 | 62 | 1008.3 |
| 20260505234502 | 19 | 121 | 6.4 | 6.4 | 0.00 | 0.00 | 0.00 | 61 | 1008.3 |
| 20260505233958 | 19 | 148 | 3.2 | 8.0 | 0.00 | 0.00 | 0.00 | 61 | 1008.1 |
| 20260505233456 | 20 | 125 | 6.4 | 6.4 | 0.00 | 0.00 | 0.00 | 60 | 1008.2 |
| 20260505232953 | 20 | 152 | 3.2 | 4.8 | 0.00 | 0.00 | 0.00 | 58 | 1007.9 |
| 20260505232451 | 20 | 140 | 3.2 | 4.8 | 0.00 | 0.00 | 0.00 | 58 | 1007.8 |
| 20260505231948 | 20 | 141 | 0.0 | 4.8 | 0.00 | 0.00 | 0.00 | 58 | 1007.6 |
| 20260505231445 | 20 | 138 | 4.8 | 6.4 | 0.00 | 0.00 | 0.00 | 57 | 1007.6 |
| 20260505230943 | 20 | 127 | 4.8 | 6.4 | 0.00 | 0.00 | 0.00 | 56 | 1007.7 |
| 20260505230441 | 21 | 124 | 6.4 | 6.4 | 0.00 | 0.00 | 0.00 | 57 | 1007.6 |
| 20260505225937 | 21 | 120 | 4.8 | 6.4 | 0.00 | 0.00 | 0.00 | 56 | 1007.5 |
| 20260505225434 | 21 | 140 | 3.2 | 6.4 | 0.00 | 0.00 | 0.00 | 56 | 1007.5 |
| 20260505224930 | 21 | 172 | 3.2 | 4.8 | 0.00 | 0.00 | 0.00 | 53 | 1007.6 |
| 20260505224427 | 21 | 146 | 4.8 | 4.8 | 0.00 | 0.00 | 0.00 | 54 | 1007.4 |
| 20260505223924 | 21 | 157 | 1.6 | 3.2 | 0.00 | 0.00 | 0.00 | 52 | 1007.3 |
| 20260505223421 | 21 | 123 | 6.4 | 6.4 | 0.00 | 0.00 | 0.00 | 53 | 1007.3 |
| 20260505222917 | 22 | 117 | 8.0 | 9.7 | 0.00 | 0.00 | 0.00 | 52 | 1007.3 |
| 20260505222414 | 22 | 151 | 3.2 | 4.8 | 0.00 | 0.00 | 0.00 | 50 | 1007.0 |
| 20260505221910 | 22 | 134 | 6.4 | 6.4 | 0.00 | 0.00 | 0.00 | 52 | 1007.2 |
| 20260505221407 | 22 | 129 | 4.8 | 4.8 | 0.00 | 0.00 | 0.00 | 54 | 1007.3 |
| 20260505220904 | 22 | 147 | 3.2 | 3.2 | 0.00 | 0.00 | 0.00 | 51 | 1007.1 |
| 20260505220401 | 22 | 195 | 3.2 | 6.4 | 0.00 | 0.00 | 0.00 | 52 | 1007.4 |
| 20260505215859 | 22 | 143 | 3.2 | 4.8 | 0.00 | 0.00 | 0.00 | 52 | 1007.3 |
| 20260505215357 | 22 | 139 | 4.8 | 8.0 | 0.00 | 0.00 | 0.00 | 50 | 1007.2 |
| 20260505214854 | 22 | 138 | 4.8 | 8.0 | 0.00 | 0.00 | 0.00 | 51 | 1007.2 |
| 20260505214351 | 23 | 111 | 6.4 | 8.0 | 0.00 | 0.00 | 0.00 | 50 | 1007.1 |
| 20260505213849 | 23 | 128 | 3.2 | 3.2 | 0.00 | 0.00 | 0.00 | 50 | 1007.1 |
| 20260505213347 | 23 | 124 | 4.8 | 6.4 | 0.00 | 0.00 | 0.00 | 48 | 1007.1 |
| 20260505212842 | 23 | 150 | 1.6 | 6.4 | 0.00 | 0.00 | 0.00 | 47 | 1006.8 |
| 20260505212340 | 23 | 148 | 3.2 | 8.0 | 0.00 | 0.00 | 0.00 | 47 | 1006.8 |
| 20260505211836 | 23 | 125 | 8.0 | 8.0 | 0.00 | 0.00 | 0.00 | 49 | 1006.9 |
| 20260505211333 | 23 | 155 | 4.8 | 4.8 | 0.00 | 0.00 | 0.00 | 50 | 1006.9 |
| 20260505210830 | 23 | 115 | 6.4 | 6.4 | 0.00 | 0.00 | 0.00 | 49 | 1006.8 |
| 20260505210327 | 24 | 136 | 6.4 | 8.0 | 0.00 | 0.00 | 0.00 | 48 | 1006.8 |
| 20260505205823 | 24 | 145 | 1.6 | 4.8 | 0.00 | 0.00 | 0.00 | 48 | 1006.8 |
| 20260505205322 | 23 | 151 | 4.8 | 9.7 | 0.00 | 0.00 | 0.00 | 47 | 1006.8 |
| 20260505204818 | 24 | 138 | 4.8 | 6.4 | 0.00 | 0.00 | 0.00 | 49 | 1006.9 |
| 20260505204317 | 24 | 121 | 4.8 | 8.0 | 0.00 | 0.00 | 0.00 | 48 | 1006.7 |
| 20260505203814 | 24 | 110 | 4.8 | 4.8 | 0.00 | 0.00 | 0.00 | 48 | 1007.0 |
| 20260505203310 | 24 | 136 | 6.4 | 9.7 | 0.00 | 0.00 | 0.00 | 46 | 1007.0 |
| 20260505202806 | 24 | 152 | 3.2 | 6.4 | 0.00 | 0.00 | 0.00 | 48 | 1007.2 |
| 20260505202306 | 24 | 101 | 3.2 | 6.4 | 0.00 | 0.00 | 0.00 | 47 | 1007.2 |
| 20260505201759 | 24 | 86 | 4.8 | 8.0 | 0.00 | 0.00 | 0.00 | 46 | 1007.0 |
| 20260505201257 | 25 | 133 | 6.4 | 8.0 | 0.00 | 0.00 | 0.00 | 47 | 1007.1 |
| 20260505200755 | 25 | 135 | 9.7 | 9.7 | 0.00 | 0.00 | 0.00 | 45 | 1007.2 |
| 20260505200252 | 25 | 114 | 4.8 | 6.4 | 0.00 | 0.00 | 0.00 | 45 | 1007.2 |
| 20260505195747 | 25 | 119 | 8.0 | 9.7 | 0.00 | 0.00 | 0.00 | 44 | 1007.2 |
| 20260505195245 | 25 | 112 | 4.8 | 9.7 | 0.00 | 0.00 | 0.00 | 45 | 1007.4 |
| 20260505194742 | 25 | 109 | 6.4 | 9.7 | 0.00 | 0.00 | 0.00 | 45 | 1007.4 |
| 20260505194238 | 25 | 6 | 3.2 | 6.4 | 0.00 | 0.00 | 0.00 | 45 | 1007.5 |
| 20260505193734 | 26 | 107 | 4.8 | 9.7 | 0.00 | 0.00 | 0.00 | 44 | 1007.6 |
| 20260505193232 | 26 | 108 | 6.4 | 8.0 | 0.00 | 0.00 | 0.00 | 42 | 1007.7 |
| 20260505192730 | 26 | 333 | 1.6 | 6.4 | 0.00 | 0.00 | 0.00 | 42 | 1007.7 |
| 20260505192227 | 26 | 142 | 4.8 | 8.0 | 0.00 | 0.00 | 0.00 | 42 | 1007.6 |
| 20260505191725 | 27 | 115 | 4.8 | 6.4 | 0.00 | 0.00 | 0.00 | 42 | 1007.7 |
| 20260505191224 | 27 | 107 | 4.8 | 6.4 | 0.00 | 0.00 | 0.00 | 42 | 1007.7 |
| 20260505190719 | 27 | 124 | 4.8 | 6.4 | 0.00 | 0.00 | 0.00 | 41 | 1007.6 |
| 20260505190219 | 27 | 170 | 3.2 | 8.0 | 0.00 | 0.00 | 0.00 | 42 | 1007.8 |
| 20260505185716 | 27 | 124 | 4.8 | 9.7 | 0.00 | 0.00 | 0.00 | 40 | 1007.9 |
| 20260505185213 | 27 | 113 | 4.8 | 6.4 | 0.00 | 0.00 | 0.00 | 40 | 1008.1 |
| 20260505184709 | 28 | 138 | 4.8 | 9.7 | 0.00 | 0.00 | 0.00 | 39 | 1008.1 |
| 20260505184206 | 28 | 76 | 1.6 | 6.4 | 0.00 | 0.00 | 0.00 | 38 | 1008.1 |
| 20260505183703 | 28 | 347 | 1.6 | 4.8 | 0.00 | 0.00 | 0.00 | 38 | 1008.3 |
| 20260505183200 | 28 | 104 | 0.0 | 6.4 | 0.00 | 0.00 | 0.00 | 39 | 1008.3 |
| 20260505182656 | 28 | 135 | 0.0 | 4.8 | 0.00 | 0.00 | 0.00 | 39 | 1008.2 |
| 20260505182154 | 28 | 91 | 0.0 | 6.4 | 0.00 | 0.00 | 0.00 | 39 | 1008.3 |
| 20260505181650 | 28 | 147 | 4.8 | 6.4 | 0.00 | 0.00 | 0.00 | 39 | 1008.3 |
| 20260505181148 | 28 | 135 | 3.2 | 6.4 | 0.00 | 0.00 | 0.00 | 38 | 1008.1 |
| 20260505180643 | 28 | 264 | 0.0 | 4.8 | 0.00 | 0.00 | 0.00 | 40 | 1008.4 |
| 20260505180141 | 29 | 115 | 4.8 | 8.0 | 0.00 | 0.00 | 0.00 | 37 | 1008.3 |
| 20260505175637 | 28 | 273 | 1.6 | 3.2 | 0.00 | 0.00 | 0.00 | 39 | 1008.3 |
| 20260505175133 | 28 | 176 | 1.6 | 6.4 | 0.00 | 0.00 | 0.00 | 39 | 1008.3 |
| 20260505174630 | 28 | 116 | 4.8 | 8.0 | 0.00 | 0.00 | 0.00 | 37 | 1008.3 |
| 20260505174126 | 30 | 120 | 8.0 | 8.0 | 0.00 | 0.00 | 0.00 | 36 | 1008.4 |
| 20260505173623 | 29 | 266 | 4.8 | 4.8 | 0.00 | 0.00 | 0.00 | 42 | 1008.5 |
| 20260505173120 | 28 | 166 | 3.2 | 4.8 | 0.00 | 0.00 | 0.00 | 38 | 1008.4 |
| 20260505172618 | 29 | 74 | 3.2 | 6.4 | 0.00 | 0.00 | 0.00 | 34 | 1008.7 |
| 20260505172114 | 28 | 134 | 1.6 | 3.2 | 0.00 | 0.00 | 0.00 | 38 | 1008.7 |
| 20260505171614 | 28 | 115 | 1.6 | 4.8 | 0.00 | 0.00 | 0.00 | 38 | 1008.7 |
| 20260505171112 | 28 | 180 | 3.2 | 6.4 | 0.00 | 0.00 | 0.00 | 38 | 1008.7 |
| 20260505170609 | 28 | 1 | 0.0 | 4.8 | 0.00 | 0.00 | 0.00 | 37 | 1008.9 |
| 20260505170105 | 28 | 106 | 4.8 | 8.0 | 0.00 | 0.00 | 0.00 | 38 | 1008.8 |